When you browse on this site, cookies collect data to enhance your experience and personalize the content and advertising you see.
Visit our Privacy Policy to learn more. By continuing to use the site, you agree to this use of cookies and data.
  • In Hungary
  • List of Countries
  • For 7 days
  • Water Temperature
  • Satellite Maps
  • Weather Map
  • News
  • Weather Widgets
  • user-avatar
    Login

    Hourly Weather Skarszyn

    Today, 19 May, Sunday

    Time Temperature Precipitation Wind Pressure Humidity
    00:00 +14°C° 0.2 mm 1 mps 741 mmHg 83%
    01:00 +14°C° 0 mm 1 mps 740 mmHg 85%
    02:00 +13°C° 0.1 mm 1 mps 740 mmHg 86%
    03:00 +13°C° 0.1 mm 1 mps 740 mmHg 87%
    04:00 +13°C° 0.1 mm 1 mps 740 mmHg 88%
    05:00 +14°C° 0 mm 1 mps 740 mmHg 85%
    06:00 +16°C° 0 mm 1 mps 740 mmHg 82%
    07:00 +18°C° 0 mm 1 mps 740 mmHg 78%
    08:00 +19°C° 0.1 mm 2 mps 740 mmHg 74%
    09:00 +20°C° 0.1 mm 2 mps 739 mmHg 69%
    10:00 +23°C° 0.1 mm 2 mps 739 mmHg 64%
    11:00 +24°C° 0.2 mm 2 mps 739 mmHg 61%
    12:00 +24°C° 0.2 mm 2 mps 739 mmHg 57%
    13:00 +25°C° 0.2 mm 2 mps 739 mmHg 54%
    14:00 +25°C° 0 mm 2 mps 738 mmHg 55%
    15:00 +25°C° 0 mm 2 mps 738 mmHg 56%
    16:00 +25°C° 0 mm 2 mps 738 mmHg 57%
    17:00 +24°C° 0 mm 2 mps 738 mmHg 61%
    18:00 +23°C° 0 mm 1 mps 738 mmHg 65%
    19:00 +21°C° 0 mm 1 mps 738 mmHg 69%
    20:00 +20°C° 0.1 mm 1 mps 738 mmHg 74%
    21:00 +18°C° 0.1 mm 2 mps 738 mmHg 79%
    22:00 +16°C° 0.1 mm 2 mps 738 mmHg 84%
    23:00 +16°C° 0 mm 1 mps 738 mmHg 85%

    Tomorrow, 20 May, Monday

    Time Temperature Precipitation Wind Pressure Humidity
    00:00 +15°C° 0 mm 1 mps 738 mmHg 87%
    01:00 +15°C° 0 mm 1 mps 738 mmHg 88%
    02:00 +14°C° 0 mm 1 mps 737 mmHg 89%
    03:00 +14°C° 0 mm 1 mps 737 mmHg 89%
    04:00 +14°C° 0 mm 1 mps 737 mmHg 89%
    05:00 +15°C° 0 mm 1 mps 737 mmHg 85%
    06:00 +18°C° 0 mm 1 mps 737 mmHg 81%
    07:00 +19°C° 0 mm 1 mps 737 mmHg 76%
    08:00 +20°C° 0.1 mm 1 mps 737 mmHg 77%
    09:00 +19°C° 0.1 mm 2 mps 737 mmHg 77%
    10:00 +20°C° 0.1 mm 2 mps 737 mmHg 77%
    11:00 +20°C° 0.3 mm 3 mps 737 mmHg 75%
    12:00 +20°C° 0.3 mm 3 mps 737 mmHg 74%
    13:00 +20°C° 0.3 mm 4 mps 737 mmHg 73%
    14:00 +20°C° 0 mm 4 mps 737 mmHg 70%
    15:00 +21°C° 0 mm 4 mps 737 mmHg 68%
    16:00 +22°C° 0 mm 4 mps 737 mmHg 65%
    17:00 +21°C° 0 mm 4 mps 737 mmHg 70%
    18:00 +19°C° 0 mm 3 mps 737 mmHg 75%
    19:00 +18°C° 0 mm 3 mps 737 mmHg 80%
    20:00 +17°C° 0 mm 3 mps 737 mmHg 81%
    21:00 +16°C° 0 mm 3 mps 737 mmHg 82%
    22:00 +14°C° 0 mm 3 mps 738 mmHg 83%
    23:00 +14°C° 0 mm 3 mps 738 mmHg 84%

    Day after tomorrow, 21 May, Tuesday

    Time Temperature Precipitation Wind Pressure Humidity
    00:00 +13°C° 0 mm 3 mps 738 mmHg 85%
    01:00 +12°C° 0 mm 3 mps 738 mmHg 86%
    02:00 +12°C° 0 mm 3 mps 738 mmHg 86%
    03:00 +12°C° 0 mm 3 mps 738 mmHg 86%
    04:00 +11°C° 0 mm 3 mps 738 mmHg 86%
    05:00 +12°C° 0 mm 3 mps 738 mmHg 83%
    06:00 +13°C° 0 mm 3 mps 738 mmHg 80%
    07:00 +14°C° 0 mm 3 mps 738 mmHg 76%
    08:00 +17°C° 0 mm 3 mps 738 mmHg 70%
    09:00 +18°C° 0 mm 3 mps 738 mmHg 64%
    10:00 +20°C° 0 mm 3 mps 738 mmHg 58%
    11:00 +20°C° 0 mm 3 mps 738 mmHg 58%
    12:00 +21°C° 0 mm 3 mps 738 mmHg 57%
    13:00 +21°C° 0 mm 3 mps 738 mmHg 56%
    14:00 +22°C° 0 mm 3 mps 738 mmHg 56%
    15:00 +23°C° 0 mm 2 mps 738 mmHg 56%
    16:00 +23°C° 0 mm 2 mps 737 mmHg 55%
    17:00 +22°C° 0 mm 1 mps 738 mmHg 61%
    18:00 +21°C° 0 mm 1 mps 738 mmHg 66%
    19:00 +20°C° 0 mm 1 mps 738 mmHg 72%
    20:00 +18°C° 0.1 mm 2 mps 738 mmHg 76%
    21:00 +17°C° 0.1 mm 2 mps 738 mmHg 81%
    22:00 +16°C° 0.1 mm 3 mps 738 mmHg 86%
    23:00 +16°C° 0.2 mm 3 mps 738 mmHg 87%

    22 May, Wednesday

    Time Temperature Precipitation Wind Pressure Humidity
    00:00 +14°C° 0.2 mm 3 mps 738 mmHg 89%
    01:00 +14°C° 0.2 mm 3 mps 738 mmHg 91%
    02:00 +15°C° 0.6 mm 2 mps 739 mmHg 92%
    03:00 +14°C° 0.6 mm 2 mps 739 mmHg 94%
    04:00 +14°C° 0.6 mm 1 mps 739 mmHg 95%
    05:00 +14°C° 0.6 mm 2 mps 739 mmHg 95%
    06:00 +15°C° 0.6 mm 2 mps 739 mmHg 95%
    07:00 +14°C° 0.6 mm 3 mps 739 mmHg 95%
    08:00 +16°C° 1.1 mm 3 mps 740 mmHg 93%
    09:00 +16°C° 1.1 mm 3 mps 740 mmHg 91%
    10:00 +16°C° 1.1 mm 3 mps 740 mmHg 89%
    11:00 +17°C° 1 mm 4 mps 741 mmHg 89%
    12:00 +16°C° 1 mm 5 mps 741 mmHg 88%
    13:00 +16°C° 1 mm 5 mps 741 mmHg 88%
    14:00 +16°C° 0.6 mm 6 mps 741 mmHg 88%
    15:00 +16°C° 0.6 mm 6 mps 741 mmHg 87%
    16:00 +16°C° 0.6 mm 6 mps 742 mmHg 86%
    17:00 +15°C° 0 mm 6 mps 742 mmHg 87%
    18:00 +14°C° 0 mm 5 mps 742 mmHg 88%
    19:00 +13°C° 0 mm 5 mps 743 mmHg 90%
    20:00 +13°C° 0.2 mm 5 mps 743 mmHg 91%
    21:00 +13°C° 0.2 mm 5 mps 743 mmHg 92%
    22:00 +13°C° 0.2 mm 5 mps 744 mmHg 94%
    23:00 +12°C° 0 mm 5 mps 744 mmHg 95%

    23 May, Thursday

    Time Temperature Precipitation Wind Pressure Humidity
    00:00 +12°C° 0 mm 4 mps 744 mmHg 95%
    01:00 +12°C° 0 mm 4 mps 744 mmHg 96%
    02:00 +12°C° 0 mm 5 mps 744 mmHg 96%
    03:00 +10°C° 0 mm 5 mps 745 mmHg 95%
    04:00 +10°C° 0 mm 5 mps 745 mmHg 95%
    05:00 +10°C° 0 mm 5 mps 745 mmHg 92%
    06:00 +10°C° 0 mm 6 mps 745 mmHg 89%
    07:00 +10°C° 0 mm 6 mps 746 mmHg 86%
    08:00 +11°C° 0 mm 6 mps 746 mmHg 78%
    09:00 +13°C° 0 mm 6 mps 746 mmHg 70%
    10:00 +15°C° 0 mm 6 mps 746 mmHg 62%
    11:00 +15°C° 0 mm 6 mps 746 mmHg 59%
    12:00 +16°C° 0 mm 6 mps 746 mmHg 57%
    13:00 +17°C° 0 mm 5 mps 746 mmHg 54%
    14:00 +17°C° 0 mm 5 mps 746 mmHg 54%
    15:00 +18°C° 0 mm 4 mps 746 mmHg 54%
    16:00 +18°C° 0 mm 4 mps 745 mmHg 55%
    17:00 +17°C° 0 mm 3 mps 745 mmHg 60%
    18:00 +16°C° 0 mm 2 mps 745 mmHg 65%
    19:00 +15°C° 0 mm 2 mps 745 mmHg 71%
    20:00 +13°C° 0 mm 1 mps 745 mmHg 72%
    21:00 +12°C° 0 mm 1 mps 745 mmHg 73%
    22:00 +11°C° 0 mm 1 mps 746 mmHg 75%
    23:00 +11°C° 0 mm 1 mps 745 mmHg 75%

    24 May, Friday

    Time Temperature Precipitation Wind Pressure Humidity
    00:00 +11°C° 0 mm 1 mps 745 mmHg 76%
    01:00 +10°C° 0 mm 1 mps 745 mmHg 77%
    02:00 +10°C° 0 mm 1 mps 745 mmHg 79%
    03:00 +9°C° 0 mm 2 mps 745 mmHg 81%
    04:00 +8°C° 0 mm 2 mps 744 mmHg 83%
    05:00 +10°C° 0 mm 2 mps 744 mmHg 79%
    06:00 +13°C° 0 mm 2 mps 744 mmHg 76%
    07:00 +14°C° 0 mm 2 mps 744 mmHg 73%
    08:00 +16°C° 0 mm 3 mps 744 mmHg 69%
    09:00 +18°C° 0 mm 3 mps 743 mmHg 65%
    10:00 +19°C° 0 mm 3 mps 743 mmHg 61%
    11:00 +20°C° 0.1 mm 3 mps 743 mmHg 61%
    12:00 +20°C° 0.1 mm 3 mps 743 mmHg 60%
    13:00 +21°C° 0.1 mm 3 mps 742 mmHg 60%
    14:00 +21°C° 0.4 mm 3 mps 742 mmHg 62%
    15:00 +21°C° 0.4 mm 3 mps 742 mmHg 63%
    16:00 +21°C° 0.4 mm 3 mps 741 mmHg 65%
    17:00 +20°C° 0.1 mm 3 mps 741 mmHg 70%
    18:00 +19°C° 0.1 mm 2 mps 741 mmHg 74%
    19:00 +17°C° 0.1 mm 2 mps 741 mmHg 79%
    20:00 +16°C° 0 mm 2 mps 741 mmHg 80%
    21:00 +15°C° 0 mm 2 mps 741 mmHg 81%
    22:00 +14°C° 0 mm 2 mps 741 mmHg 82%
    23:00 +12°C° 0 mm 3 mps 741 mmHg 82%
    Show more